Flag for Germany Weather past 2 weeks in Konstanz, Baden-Württemberg, Germany

Now
52 °F

Overcast.


Feels Like: 52 °F
Forecast: 42 / 60 °F
Wind: 1 mph from Southeast

Location: Konstanz

Current Time: Oct 25, 2014 at 8:59:31 PM

Latest Report: Oct 25, 2014 at 8:00 PM


Visibility: 10 mi

Pressure: 30.21 "Hg

Humidity: 82%

Dew point: 47 °F

Location of KonstanzLocation

Historic Weather in Konstanz — Graph

°F

Konstanz temperature yesterday

Maximum temperature yesterday: 53 °F (at 5:00 PM)
Minimum temperature yesterday: 42 °F (at 8:00 AM)
Average temperature yesterday: 47 °F

Past Weeks' High & Low Weather Summary

 TemperatureHumidityPressure
High72 °F (Oct 20, 3:00 PM)100% (Oct 18, 3:00 AM)30.32 "Hg (Oct 18, 3:00 AM)
Low41 °F (Oct 22, 9:00 AM)53% (Oct 21, 5:00 PM)29.69 "Hg (Oct 21, 8:00 PM)
Average55 °F86%30.02 "Hg
* Reported Oct 10 8:00 PM — Oct 25 8:00 PM, Konstanz, Weather by CustomWeather, © 2014

Note: Actual official high and low records may vary slightly from our data, if they occured in-between our weather recording intervals... More about our weather records

Advertising

Konstanz weather history for previous 24 hours

 ConditionsComfort  
Time TempWeatherWind HumidityBarometerVisibility
8:00 PM
Oct 25
52 °FOvercast.1 mph82%30.21 "Hg10 mi
7:00 PM52 °FOvercast.1 mph80%30.20 "Hg9 mi
6:00 PM52 °FOvercast.2 mph79%30.18 "Hg11 mi
5:00 PM53 °FOvercast.2 mph80%30.17 "Hg11 mi
4:00 PM53 °FOvercast.2 mph79%30.16 "Hg11 mi
3:00 PM53 °FOvercast.2 mph79%30.16 "Hg7 mi
2:00 PM52 °FOvercast.1 mph80%30.16 "Hg6 mi
1:00 PM51 °FLow clouds.1 mph84%30.17 "Hg6 mi
12:00 PM51 °FFog.1 mph81%30.17 "Hg4 mi
11:00 AM48 °FLow clouds.1 mph88%30.18 "Hg4 mi
10:00 AM47 °FRain. Low clouds.1 mph93%30.17 "Hg4 mi
9:00 AM46 °FLight rain. Low clouds.1 mph97%30.18 "Hg4 mi
8:00 AM45 °FLight rain. Low clouds.1 mph95%30.17 "Hg3 mi
7:00 AM44 °FLight rain. Low clouds.No wind94%30.16 "Hg4 mi
6:00 AM44 °FFog.1 mph95%30.15 "Hg4 mi
5:00 AM44 °FPassing clouds.1 mph95%30.15 "Hg6 mi
4:00 AM43 °FLow clouds.1 mph97%30.15 "Hg6 mi
3:00 AM42 °FFog.No wind97%30.16 "Hg4 mi
2:00 AM42 °FClear.1 mph97%30.17 "Hg6 mi
1:00 AM43 °FClear.1 mph96%30.16 "Hg6 mi
12:00 AM44 °FClear.1 mph94%30.17 "Hg9 mi
11:00 PM
Oct 24
44 °FClear.1 mph93%30.17 "Hg9 mi
10:00 PM44 °FClear.1 mph92%30.17 "Hg6 mi
9:00 PM45 °FOvercast.2 mph92%30.15 "Hg11 mi
8:00 PM46 °FPassing clouds.No wind84%30.15 "Hg12 mi
Weather by CustomWeather, © 2014

See weather overviewHow to use our weather pages